Weather History for KDVK - January, 2014

Change the Weather History Date:

Saturday, January 25, 2014

  Actual Average (KLEX) Record (KLEX)
Temperature  
Mean Temperature 28 °F 33 °F  
Max Temperature 35 °F 41 °F 76 °F (1950)
Min Temperature 19 °F 25 °F -6 °F (1905)
Degree Days  
Heating Degree Days 37 32  
Month to date heating degree days 800  
Since 1 July heating degree days 2588  
Cooling Degree Days 0 0  
Month to date cooling degree days 0  
Year to date cooling degree days 0  
Moisture  
Dew Point 14 °F    
Average Humidity 60    
Maximum Humidity 93    
Minimum Humidity 30    
Precipitation  
Precipitation 0.00 in 0.10 in 1.18 in (1933)
Month to date precipitation 2.56  
Year to date precipitation 2.56  
Snow  
Snow 0.00 in 0.10 in 7.80 in (1907)
Month to date snowfall 3.0  
Since 1 July snowfall 5.8  
Snow Depth -    
Sea Level Pressure  
Sea Level Pressure 29.79 in    
Wind  
Wind Speed 18 mph (WSW)    
Max Wind Speed 24 mph    
Max Gust Speed 44 mph    
Visibility 7 miles    
Events Snow    
T = Trace of Precipitation, MM = Missing Value Source: NWS Daily Summary

Daily Weather History Graph

Daily Weather History Graph

Search for Another Location

Airport or City:

Trip Planner

Search our weather history database for the weather conditions in past years. The results will help you decide how hot, cold, wet, or windy it might be!

Date:

Astronomy

Jan. 25, 2014 Rise Set
Actual Time 7:47 AM EST 5:55 PM EST
Civil Twilight 7:19 AM EST 6:23 PM EST
Nautical Twilight 6:48 AM EST 6:55 PM EST
Astronomical Twilight 6:17 AM EST 7:26 PM EST
Moon 2:19 AM EST (1/25) 12:55 PM EST (1/25)
Length of Visible Light 11h 03m
Length of Day
10h 07m
Waning Crescent, 34% of the Moon is Illuminated
Jan 25
Waning Crescent
Jan 30
New
Feb 6
First Quarter
Feb 14
Full
Feb 22
Last Quarter

Hourly Weather History & Observations

Time (EST) Temp. Windchill Dew Point Humidity Pressure Visibility Wind Dir Wind Speed Gust Speed Precip Events Conditions
12:15 AM 23.0 °F 8.0 °F 3.2 °F 43% 29.99 in 10.0 mi SW 20.7 mph 27.6 mph N/A   Clear
12:35 AM 23.0 °F 8.7 °F 3.2 °F 43% 29.96 in 10.0 mi SW 18.4 mph 31.1 mph N/A   Clear
12:55 AM 23.0 °F 8.7 °F 3.2 °F 43% 29.95 in 10.0 mi SW 18.4 mph 31.1 mph N/A   Clear
1:15 AM 23.0 °F 8.7 °F 3.2 °F 43% 29.94 in 10.0 mi SW 18.4 mph 27.6 mph N/A   Clear
1:35 AM 24.8 °F 10.7 °F 3.2 °F 40% 29.93 in 10.0 mi SW 19.6 mph 29.9 mph N/A   Scattered Clouds
1:55 AM 24.8 °F 10.3 °F 3.2 °F 40% 29.91 in 10.0 mi SW 20.7 mph 32.2 mph N/A   Scattered Clouds
2:15 AM 23.0 °F 8.7 °F 3.2 °F 43% 29.91 in 10.0 mi SW 18.4 mph 25.3 mph N/A   Mostly Cloudy
2:35 AM 24.8 °F 10.3 °F 3.2 °F 40% 29.89 in 10.0 mi SW 20.7 mph 28.8 mph N/A   Overcast
2:55 AM 24.8 °F 10.3 °F 3.2 °F 40% 29.89 in 10.0 mi SW 20.7 mph - N/A   Overcast
3:15 AM 24.8 °F 10.3 °F 3.2 °F 40% 29.87 in 10.0 mi SW 20.7 mph 28.8 mph N/A   Overcast
3:35 AM 24.8 °F 11.9 °F 3.2 °F 40% 29.85 in 10.0 mi SW 16.1 mph 26.5 mph N/A   Overcast
3:55 AM 24.8 °F 11.9 °F 5.0 °F 43% 29.84 in 10.0 mi SW 16.1 mph 21.9 mph N/A   Overcast
4:15 AM 24.8 °F 12.4 °F 5.0 °F 43% 29.81 in 10.0 mi SSW 15.0 mph 20.7 mph N/A   Overcast
4:35 AM 24.8 °F 11.9 °F 5.0 °F 43% 29.81 in 10.0 mi SW 16.1 mph 23.0 mph N/A   Overcast
4:55 AM 24.8 °F 9.6 °F 6.8 °F 46% 29.79 in 7.0 mi WSW 23.0 mph 32.2 mph N/A Snow Light Snow
5:15 AM 23.0 °F 7.6 °F 14.0 °F 68% 29.78 in 2.5 mi SW 21.9 mph 32.2 mph N/A Snow Light Snow
5:35 AM 23.0 °F 8.7 °F 19.4 °F 86% 29.77 in 1.0 mi SW 18.4 mph 26.5 mph N/A Snow Snow
5:55 AM 21.2 °F 7.3 °F 19.4 °F 93% 29.76 in 1.0 mi SW 16.1 mph 23.0 mph N/A Snow Light Snow
6:15 AM 21.2 °F 7.8 °F 19.4 °F 93% 29.75 in 1.2 mi SW 15.0 mph 21.9 mph N/A Snow Light Snow
6:35 AM 23.0 °F 9.6 °F 19.4 °F 86% 29.75 in 4.0 mi SW 16.1 mph 23.0 mph N/A Snow Light Snow
6:55 AM 23.0 °F 8.7 °F 19.4 °F 86% 29.74 in 1.5 mi SW 18.4 mph 27.6 mph N/A Snow Light Snow
7:15 AM 23.0 °F 8.3 °F 19.4 °F 86% 29.73 in 0.8 mi SW 19.6 mph 26.5 mph N/A Snow Snow
7:35 AM 23.0 °F 6.9 °F 21.2 °F 93% 29.73 in 0.5 mi SW 24.2 mph 28.8 mph N/A Snow Snow
7:55 AM 23.0 °F 7.6 °F 21.2 °F 93% 29.73 in 0.5 mi SW 21.9 mph 27.6 mph N/A Snow Heavy Snow
8:15 AM 23.0 °F 7.2 °F 21.2 °F 93% 29.72 in 0.5 mi SW 23.0 mph 33.4 mph N/A Snow Snow
8:35 AM 23.0 °F 8.0 °F 21.2 °F 93% 29.72 in 0.2 mi SW 20.7 mph 31.1 mph N/A Snow Heavy Snow
8:55 AM 23.0 °F 9.2 °F 21.2 °F 93% 29.72 in 0.2 mi SW 17.3 mph 28.8 mph N/A Snow Heavy Snow
9:15 AM 23.0 °F 9.2 °F 21.2 °F 93% 29.72 in 0.2 mi SW 17.3 mph 27.6 mph N/A Snow Snow
9:35 AM 23.0 °F 9.6 °F 21.2 °F 93% 29.72 in 1.0 mi SW 16.1 mph 21.9 mph N/A Snow Light Snow
9:55 AM 24.8 °F 11.9 °F 21.2 °F 86% 29.72 in 0.8 mi SW 16.1 mph 27.6 mph N/A Snow Light Snow
10:15 AM 24.8 °F 10.3 °F 21.2 °F 86% 29.73 in 2.0 mi WSW 20.7 mph 32.2 mph N/A Snow Light Snow
10:35 AM 26.6 °F 13.1 °F 21.2 °F 80% 29.72 in 2.5 mi WSW 19.6 mph 26.5 mph N/A Snow Light Snow
10:55 AM 26.6 °F 13.8 °F 21.2 °F 80% 29.72 in 3.0 mi WSW 17.3 mph 27.6 mph N/A   Overcast
11:15 AM 28.4 °F 15.1 °F 21.2 °F 74% 29.72 in 3.0 mi WSW 20.7 mph 28.8 mph N/A   Haze
11:35 AM 28.4 °F 14.7 °F 23.0 °F 80% 29.72 in 4.0 mi West 21.9 mph 26.5 mph N/A   Haze
12:35 PM 30.2 °F 19.3 °F 23.0 °F 75% 29.69 in 7.0 mi WSW 15.0 mph 26.5 mph N/A   Overcast
12:55 PM 32.0 °F 20.8 °F 23.0 °F 69% 29.68 in 7.0 mi SW 17.3 mph - N/A   Overcast
1:15 PM 32.0 °F 22.1 °F 23.0 °F 69% 29.67 in 10.0 mi WSW 13.8 mph 26.5 mph N/A   Overcast
1:35 PM 32.0 °F 22.5 °F 23.0 °F 69% 29.67 in 10.0 mi WSW 12.7 mph 24.2 mph N/A   Overcast
1:55 PM 32.0 °F 22.5 °F 23.0 °F 69% 29.67 in 10.0 mi WSW 12.7 mph 27.6 mph N/A   Overcast
2:15 PM 32.0 °F 22.5 °F 21.2 °F 64% 29.66 in 10.0 mi WSW 12.7 mph 27.6 mph N/A   Mostly Cloudy
2:35 PM 32.0 °F 21.6 °F 21.2 °F 64% 29.65 in 10.0 mi WSW 15.0 mph 25.3 mph N/A   Mostly Cloudy
2:55 PM 33.8 °F 23.2 °F 21.2 °F 60% 29.65 in 10.0 mi WSW 17.3 mph 25.3 mph N/A   Scattered Clouds
3:15 PM 33.8 °F 21.9 °F 23.0 °F 65% 29.65 in 10.0 mi West 21.9 mph 27.6 mph N/A   Scattered Clouds
3:35 PM 35.6 °F 26.6 °F 21.2 °F 56% 29.65 in 10.0 mi West 13.8 mph 25.3 mph N/A   Mostly Cloudy
3:55 PM 35.6 °F 26.2 °F 23.0 °F 60% 29.66 in 10.0 mi WNW 15.0 mph 23.0 mph N/A   Overcast
4:15 PM 35.6 °F 24.0 °F 23.0 °F 60% 29.67 in 10.0 mi West 23.0 mph 33.4 mph N/A   Overcast
4:35 PM 35.6 °F 26.2 °F 26.6 °F 70% 29.68 in 7.0 mi WNW 15.0 mph 32.2 mph N/A   Overcast
4:55 PM 35.6 °F 24.8 °F 26.6 °F 70% 29.69 in 10.0 mi West 19.6 mph 26.5 mph N/A   Overcast
5:15 PM 33.8 °F 21.6 °F 28.4 °F 81% 29.69 in 0.8 mi WNW 23.0 mph 35.7 mph N/A Snow Light Snow
5:35 PM 35.6 °F 24.8 °F 24.8 °F 65% 29.71 in 10.0 mi West 19.6 mph 25.3 mph N/A   Overcast
5:55 PM 35.6 °F 27.5 °F 19.4 °F 52% 29.73 in 10.0 mi West 11.5 mph 25.3 mph N/A   Scattered Clouds
6:15 PM 33.8 °F 22.5 °F 12.2 °F 41% 29.75 in 10.0 mi WNW 19.6 mph 28.8 mph N/A   Clear
6:35 PM 32.0 °F 19.8 °F 6.8 °F 35% 29.77 in 3.0 mi WNW 20.7 mph 43.7 mph N/A   Haze
6:55 PM 32.0 °F 19.5 °F 5.0 °F 32% 29.79 in 10.0 mi WNW 21.9 mph 34.5 mph N/A   Clear
7:15 PM 32.0 °F 22.5 °F 3.2 °F 30% 29.82 in 10.0 mi NW 12.7 mph 25.3 mph N/A   Clear
7:35 PM 30.2 °F 18.1 °F 5.0 °F 34% 29.84 in 10.0 mi NW 18.4 mph 31.1 mph N/A   Clear
7:55 PM 28.4 °F 17.5 °F 1.4 °F 31% 29.86 in 10.0 mi NW 13.8 mph 26.5 mph N/A   Clear
8:15 PM 28.4 °F 18.5 °F 1.4 °F 31% 29.88 in 10.0 mi NW 11.5 mph 19.6 mph N/A   Clear
8:35 PM 26.6 °F 15.2 °F 3.2 °F 37% 29.88 in 10.0 mi NW 13.8 mph 20.7 mph N/A   Clear
8:55 PM 26.6 °F 14.7 °F 3.2 °F 37% 29.89 in 10.0 mi NW 15.0 mph 21.9 mph N/A   Clear
9:15 PM 24.8 °F 12.4 °F 3.2 °F 40% 29.90 in 10.0 mi NW 15.0 mph 19.6 mph N/A   Clear
10:35 PM 23.0 °F 12.4 °F 3.2 °F 43% 29.95 in 10.0 mi NW 10.4 mph 19.6 mph N/A   Clear
10:55 PM 21.2 °F 10.9 °F 1.4 °F 42% 29.95 in 10.0 mi NW 9.2 mph - N/A   Clear
11:15 PM 21.2 °F 11.7 °F 1.4 °F 42% 29.96 in 10.0 mi NW 8.1 mph - N/A   Clear
11:35 PM 21.2 °F 12.6 °F 1.4 °F 42% 29.97 in 10.0 mi WNW 6.9 mph - N/A   Clear
11:55 PM 19.4 °F 12.8 °F 1.4 °F 46% 29.97 in 10.0 mi NW 4.6 mph - N/A   Clear